Location: Chippewa Lake
(41.0698°N, 81.9010°W)
Time: 22:03:42
(UTC+00:00)

CZ-2D R/B - Pass Details

Date: 09 May 2021
Orbit: 791 x 845 km, 98.7° (Epoch: 17 June)

Event Time Altitude Azimuth Distance (km) Brightness Sun altitude
Rises 08:11:55 0° 1° (N) 3,396 6.1 -19.7°
Reaches altitude 10° 08:14:40 10° 348° (NNW) 2,450 5.1 -19.4°
Maximum altitude 08:18:57 25° 296° (WNW) 1,634 3.5 -18.8°
Enters shadow 08:20:32 21° 270° (W) 1,761 3.5 -18.6°
